22:24
Airports
History
Links
Donate
Help keep this website running!
PayPal
Bitcoin
Information on this page is community maintained and may be outdated or inaccurate and is intended for reference only or PC simulator navigating.
Always use approved charts for navigating.
TN62
Mc Afee STOL Patch
Mc Afee STOL Patch (TN62)
Johnson City, Tennessee, United States (37601)
4
Lat/Lng:36° 22' 20.38" N / 82° 23' 29.51" W
36.372327 / -82.39153
Elevation:1925'ft 587mMSL
ID / ICAO:TN62
Runways:1
Longest:(05-23) 338.0m 1,109ft Grass
Distance To
Airport ID:
Nearby VORs <50NM
Nearby NDBs
Nearby WeatherUpdated 06-26-17 21:53 GMT
Nearby weather at KTRI, Tri-cities Rgnl Tn/va located 7.2 nautical miles from TN62
Altimeter: 30.09
Visibility: 10.0 statute miles
Wind: 11 knots (260°)
Temp: 25°c 77°f
Humidity: 44.3%

METAR: KTRI 262153Z 26011KT 10SM SCT055 SCT080 BKN150 25/12 A3009 RMK AO2 SLP171 T02500122

(Powered by phpweather)
Runway 05 / 23
Dimensions:338 x 15.2m 1109' x 50'ft
Surface:Grass
Runway 05 [A]Runway 23 [B]
Heading:045°TH 225°TH
Lat:
Lng:
36° 22' 16.6"N
82° 23' 34.36"W
36° 22' 24.15"N
82° 23' 24.66"W
User Notes and Comments
Google Map
Nearby Airports
(U) Johnson City 4.6 NM
0A4 E 97°
(C) Tri-cities Rgnl Tn/va 7.2 NM
KTRI (WX) N 352°
(R) Indian Springs 11.4 NM
3TN0 N 350°
(U) Elizabethton Muni 12.1 NM
0A9 E 90°
4 Decker Farm 13.3 NM
TN03 SSW 203°
(R) Pensinger 21.2 NM
TN99 WSW 255°
(U) Greeneville-greene County Muni 26.3 NM
KGCY WSW 242°
VFR Chart
Flight Planning at SkyVector.com